FW8740 Weather Reports


time (UTC)temp
C
wind
direction
speed
KPH
gust
KPH
rain 1hr
cm
rain 24hr
cm
rain mn
cm
humidity
%
barometer
mb
20260506051319 14 135 1.6 3.2 0.00 0.00 0.00 84 1013.7
20260506050816 14 128 1.6 3.2 0.00 0.00 0.00 83 1013.8
20260506050314 14 144 0.0 1.6 0.00 0.00 0.00 83 1013.8
20260506044804 14 131 1.6 3.2 0.00 0.00 0.00 81 1013.7
20260506044301 15 128 1.6 3.2 0.00 0.00 0.00 81 1014.0
20260506043759 15 134 1.6 1.6 0.00 0.00 0.00 81 1013.9
20260506043256 15 122 0.0 3.2 0.00 0.00 0.00 80 1013.7
20260506042755 15 126 0.0 1.6 0.00 0.00 0.00 80 1013.9
20260506042253 15 134 1.6 1.6 0.00 0.00 0.00 79 1013.7
20260506041751 15 139 1.6 1.6 0.00 0.00 0.00 79 1013.7
20260506041248 15 145 1.6 3.2 0.00 0.00 0.00 79 1013.6
20260506040745 15 139 1.6 1.6 0.00 0.00 0.00 78 1013.6
20260506040242 15 139 1.6 3.2 0.00 0.00 0.00 78 1013.5
20260506035739 15 138 1.6 1.6 0.00 0.00 0.00 77 1013.8
20260506035236 16 148 1.6 1.6 0.00 0.00 0.00 76 1013.7
20260506034733 16 131 1.6 3.2 0.00 0.00 0.00 76 1013.6
20260506034230 16 151 1.6 3.2 0.00 0.00 0.00 75 1013.7
20260506033727 16 127 1.6 3.2 0.00 0.00 0.00 75 1013.8
20260506033224 16 135 1.6 1.6 0.00 0.00 0.00 74 1013.6
20260506032721 16 139 1.6 3.2 0.00 0.00 0.00 74 1013.8
20260506032218 16 133 1.6 3.2 0.00 0.00 0.00 74 1013.4
20260506031714 17 134 1.6 3.2 0.00 0.00 0.00 73 1013.6
20260506031212 17 173 3.2 3.2 0.00 0.00 0.00 73 1013.5
20260506030710 17 222 3.2 3.2 0.00 0.00 0.00 73 1013.5
20260506030207 17 122 1.6 1.6 0.00 0.00 0.00 72 1013.5
20260506025704 17 236 3.2 4.8 0.00 0.00 0.00 72 1013.7
20260506025200 17 158 1.6 3.2 0.00 0.00 0.00 72 1013.6
20260506024658 17 154 1.6 4.8 0.00 0.00 0.00 71 1013.5
20260506024154 17 159 3.2 4.8 0.00 0.00 0.00 71 1013.5
20260506023650 17 233 4.8 4.8 0.00 0.00 0.00 71 1013.5
20260506023148 17 210 3.2 4.8 0.00 0.00 0.00 71 1013.6
20260506022644 18 208 3.2 3.2 0.00 0.00 0.00 70 1013.8
20260506022142 18 148 3.2 3.2 0.00 0.00 0.00 70 1013.5
20260506021640 18 151 1.6 3.2 0.00 0.00 0.00 70 1013.5
20260506021136 18 136 3.2 4.8 0.00 0.00 0.00 70 1013.5
20260506020634 18 119 3.2 8.0 0.00 0.00 0.00 70 1013.5
20260506020131 18 221 4.8 8.0 0.00 0.00 0.00 70 1013.3
20260506015629 18 206 4.8 9.7 0.00 0.00 0.00 70 1013.4
20260506015126 18 209 6.4 8.0 0.00 0.00 0.00 70 1013.4
20260506014623 18 128 1.6 3.2 0.00 0.00 0.00 70 1013.2
20260506014118 18 223 3.2 8.0 0.00 0.00 0.00 70 1013.2
20260506013617 18 214 4.8 8.0 0.00 0.00 0.00 70 1012.9
20260506013113 18 196 4.8 4.8 0.00 0.00 0.00 70 1013.0
20260506012610 18 246 6.4 11.3 0.00 0.00 0.00 70 1012.9
20260506012106 18 246 6.4 11.3 0.00 0.00 0.00 70 1013.2
20260506011604 18 213 6.4 8.0 0.00 0.00 0.00 71 1012.9
20260506011100 17 221 3.2 9.7 0.00 0.00 0.00 71 1012.9
20260506010559 18 204 4.8 8.0 0.00 0.00 0.00 71 1013.0
20260506010056 18 160 4.8 4.8 0.00 0.00 0.00 71 1012.9
20260506005553 18 230 3.2 9.7 0.00 0.00 0.00 71 1012.7
20260506005049 18 226 3.2 8.0 0.00 0.00 0.00 71 1012.7
20260506004546 18 150 4.8 8.0 0.00 0.00 0.00 71 1012.6
20260506004043 17 191 4.8 9.7 0.00 0.00 0.00 71 1012.8
20260506003539 17 208 4.8 4.8 0.00 0.00 0.00 71 1012.4
20260506003036 17 251 6.4 9.7 0.00 0.00 0.00 71 1012.6
20260506002532 17 230 6.4 9.7 0.00 0.00 0.00 71 1012.5
20260506002028 17 228 8.0 9.7 0.00 0.00 0.00 71 1012.4
20260506001524 18 143 1.6 3.2 0.00 0.00 0.00 70 1012.3
20260506001022 18 144 1.6 3.2 0.00 0.00 0.00 70 1012.3
20260506000519 18 168 1.6 3.2 0.00 0.00 0.00 70 1012.5
20260506000016 18 132 1.6 3.2 0.00 0.00 0.00 70 1012.3
20260505235514 18 125 1.6 4.8 0.00 0.00 0.00 69 1012.1
20260505235010 18 132 3.2 3.2 0.00 0.00 0.00 69 1012.0
20260505234508 18 161 1.6 3.2 0.00 0.00 0.00 69 1012.2
20260505234004 18 140 1.6 4.8 0.00 0.00 0.00 68 1012.0
20260505233502 18 152 1.6 4.8 0.00 0.00 0.00 68 1011.8
20260505232959 19 234 3.2 4.8 0.00 0.00 0.00 68 1011.7
20260505232457 19 122 0.0 3.2 0.00 0.00 0.00 67 1011.6
20260505231954 19 172 1.6 8.0 0.00 0.00 0.00 66 1011.6
20260505231451 20 161 3.2 4.8 0.00 0.00 0.00 66 1011.7
20260505230950 20 109 1.6 8.0 0.00 0.00 0.00 66 1011.2
20260505230447 20 119 1.6 8.0 0.00 0.00 0.00 65 1011.4
20260505225943 20 219 3.2 8.0 0.00 0.00 0.00 65 1011.2
20260505225440 20 139 4.8 4.8 0.00 0.00 0.00 65 1011.2
20260505224936 20 161 3.2 4.8 0.00 0.00 0.00 65 1011.5
20260505224433 20 229 4.8 12.9 0.00 0.00 0.00 64 1011.2
20260505223930 20 240 3.2 8.0 0.00 0.00 0.00 64 1011.2
20260505223427 20 209 4.8 8.0 0.00 0.00 0.00 63 1011.0
20260505222924 20 206 3.2 4.8 0.00 0.00 0.00 62 1011.0
20260505222420 21 138 1.6 8.0 0.00 0.00 0.00 62 1011.1
20260505221916 21 225 4.8 4.8 0.00 0.00 0.00 62 1011.4
20260505221414 21 110 3.2 11.3 0.00 0.00 0.00 61 1011.3
20260505220910 21 149 1.6 9.7 0.00 0.00 0.00 61 1011.2
20260505220407 21 184 4.8 9.7 0.00 0.00 0.00 60 1011.2
20260505215905 21 141 3.2 4.8 0.00 0.00 0.00 60 1011.0
20260505215403 22 166 0.0 3.2 0.00 0.00 0.00 60 1011.0
20260505214901 22 58 1.6 3.2 0.00 0.00 0.00 59 1010.8
20260505214358 22 110 1.6 3.2 0.00 0.00 0.00 59 1011.0
20260505213855 22 148 1.6 9.7 0.00 0.00 0.00 59 1011.1
20260505213353 22 249 4.8 9.7 0.00 0.00 0.00 59 1010.8
20260505212849 22 226 4.8 8.0 0.00 0.00 0.00 58 1010.7
20260505212346 22 168 3.2 8.0 0.00 0.00 0.00 57 1010.9
20260505211842 23 244 6.4 8.0 0.00 0.00 0.00 57 1010.7
20260505211340 22 134 4.8 11.3 0.00 0.00 0.00 57 1010.9
20260505210836 23 172 4.8 11.3 0.00 0.00 0.00 57 1010.8
20260505210333 22 167 4.8 12.9 0.00 0.00 0.00 57 1010.7
20260505205830 22 177 4.8 9.7 0.00 0.00 0.00 57 1010.7
20260505205328 23 268 4.8 8.0 0.00 0.00 0.00 57 1010.7
20260505204824 23 214 4.8 14.5 0.00 0.00 0.00 57 1010.8
20260505204322 23 196 9.7 16.1 0.00 0.00 0.00 56 1010.9
20260505203820 23 260 4.8 8.0 0.00 0.00 0.00 57 1010.9
20260505203316 23 132 1.6 4.8 0.00 0.00 0.00 57 1011.1
20260505202812 23 236 4.8 11.3 0.00 0.00 0.00 57 1010.7
20260505202309 23 120 3.2 8.0 0.00 0.00 0.00 57 1010.9
20260505201805 23 314 4.8 14.5 0.00 0.00 0.00 57 1010.8
20260505201303 23 178 4.8 8.0 0.00 0.00 0.00 57 1011.0
20260505200801 23 244 4.8 9.7 0.00 0.00 0.00 57 1010.9
20260505200258 23 237 3.2 17.7 0.00 0.00 0.00 57 1011.3
20260505195753 23 157 4.8 4.8 0.00 0.00 0.00 58 1011.3
20260505195251 23 273 8.0 12.9 0.00 0.00 0.00 57 1011.1
20260505194748 23 169 8.0 9.7 0.00 0.00 0.00 58 1011.6
20260505194244 23 252 8.0 12.9 0.00 0.00 0.00 57 1011.6
20260505193740 23 253 6.4 8.0 0.00 0.00 0.00 58 1011.8
20260505193238 23 179 8.0 11.3 0.00 0.00 0.00 57 1011.3
20260505192736 23 247 9.7 11.3 0.00 0.00 0.00 57 1011.8
20260505192233 23 186 4.8 12.9 0.00 0.00 0.00 57 1011.9
20260505191731 23 116 3.2 12.9 0.00 0.00 0.00 59 1011.7
20260505191230 23 243 8.0 12.9 0.00 0.00 0.00 57 1011.7
20260505190726 23 220 9.7 14.5 0.00 0.00 0.00 57 1011.8
20260505190225 23 275 8.0 9.7 0.00 0.00 0.00 56 1011.6
20260505185722 24 237 8.0 11.3 0.00 0.00 0.00 55 1012.0
20260505185219 24 203 11.3 14.5 0.00 0.00 0.00 55 1012.1
20260505184715 23 266 4.8 9.7 0.00 0.00 0.00 56 1012.1
20260505184212 24 233 6.4 11.3 0.00 0.00 0.00 54 1012.1
20260505183709 25 227 4.8 11.3 0.00 0.00 0.00 53 1012.1
20260505183207 24 209 6.4 16.1 0.00 0.00 0.00 53 1012.2
20260505182702 25 244 8.0 12.9 0.00 0.00 0.00 53 1012.1
20260505182200 25 235 6.4 12.9 0.00 0.00 0.00 52 1012.3
20260505181656 25 229 6.4 11.3 0.00 0.00 0.00 53 1012.0
20260505181154 25 210 4.8 14.5 0.00 0.00 0.00 52 1012.3
20260505180650 25 186 4.8 11.3 0.00 0.00 0.00 53 1012.3
20260505180147 26 213 11.3 14.5 0.00 0.00 0.00 50 1012.2
20260505175643 25 177 6.4 12.9 0.00 0.00 0.00 50 1012.2
20260505175139 26 139 1.6 9.7 0.00 0.00 0.00 49 1012.2
20260505174636 25 216 4.8 9.7 0.00 0.00 0.00 50 1012.2
20260505174132 26 219 4.8 4.8 0.00 0.00 0.00 50 1012.4
20260505173629 25 277 3.2 12.9 0.00 0.00 0.00 52 1012.6
20260505173126 25 159 6.4 12.9 0.00 0.00 0.00 51 1012.4
20260505172624 25 182 3.2 8.0 0.00 0.00 0.00 52 1012.5
20260505172120 25 243 6.4 8.0 0.00 0.00 0.00 52 1012.5
20260505171615 24 176 4.8 8.0 0.00 0.00 0.00 55 1012.5
20260505171112 25 156 6.4 8.0 0.00 0.00 0.00 53 1012.5
20260505170609 25 200 4.8 4.8 0.00 0.00 0.00 53 1012.7
20260505170105 25 209 3.2 8.0 0.00 0.00 0.00 54 1012.7
20260505165600 23 178 6.4 12.9 0.00 0.00 0.00 55 1012.8
20260505165056 24 204 9.7 14.5 0.00 0.00 0.00 54 1012.8
20260505164552 25 202 3.2 4.8 0.00 0.00 0.00 53 1012.7
20260505164050 25 75 6.4 9.7 0.00 0.00 0.00 53 1012.8
20260505163549 24 131 3.2 9.7 0.00 0.00 0.00 54 1012.9
20260505163045 25 114 1.6 11.3 0.00 0.00 0.00 52 1013.1
20260505162538 25 180 6.4 9.7 0.00 0.00 0.00 51 1013.2
20260505162035 25 8 3.2 4.8 0.00 0.00 0.00 51 1013.2
20260505161532 25 129 1.6 4.8 0.00 0.00 0.00 52 1013.2
20260505161029 24 260 4.8 12.9 0.00 0.00 0.00 52 1013.3
20260505160527 25 344 4.8 17.7 0.00 0.00 0.00 52 1013.4
20260505153003 23 328 4.8 14.5 0.00 0.00 0.00 53 1013.7
20260505152501 23 283 6.4 8.0 0.00 0.00 0.00 54 1013.8
20260505151956 23 187 4.8 4.8 0.00 0.00 0.00 55 1013.9
20260505151451 23 238 8.0 12.9 0.00 0.00 0.00 54 1013.7
20260505150949 23 274 3.2 8.0 0.00 0.00 0.00 55 1014.1
20260505150445 23 19 3.2 4.8 0.00 0.00 0.00 56 1014.1
20260505140416 21 116 1.6 4.8 0.00 0.00 0.00 65 1014.0
20260505124829 16 104 1.6 3.2 0.00 0.00 0.00 86 1013.9
20260505124326 16 212 3.2 4.8 0.00 0.00 0.00 87 1013.9
20260505123822 15 136 1.6 4.8 0.00 0.00 0.00 87 1014.1
20260505123319 15 180 3.2 3.2 0.00 0.00 0.00 88 1013.8
20260505122815 14 180 1.6 4.8 0.00 0.00 0.00 88 1013.8
20260505122312 13 131 1.6 4.8 0.00 0.00 0.00 89 1014.1
20260505121809 13 126 1.6 1.6 0.00 0.00 0.00 89 1013.7
20260505121306 13 125 0.0 1.6 0.00 0.00 0.00 89 1013.9
20260505120802 13 139 1.6 1.6 0.00 0.00 0.00 89 1013.8
20260505120258 13 141 1.6 3.2 0.00 0.00 0.00 89 1014.2
20260505115757 13 218 4.8 4.8 0.00 0.00 0.00 89 1014.2
20260505115254 12 91 1.6 1.6 0.00 0.00 0.00 90 1013.6
20260505114752 12 184 4.8 4.8 0.00 0.00 0.00 89 1013.9
20260505114248 13 65 3.2 8.0 0.00 0.00 0.00 89 1013.7
20260505113745 13 86 0.0 3.2 0.00 0.00 0.00 89 1014.4
20260505113241 13 4 3.2 3.2 0.00 0.00 0.00 89 1014.3
20260505112737 12 291 1.6 4.8 0.00 0.00 0.00 90 1014.2
20260505112235 12 91 0.0 0.0 0.00 0.00 0.00 90 1014.0
20260505111735 12 340 3.2 4.8 0.00 0.00 0.00 90 1014.3
20260505111231 11 91 0.0 4.8 0.00 0.00 0.00 91 1014.3
20260505110727 11 114 0.0 0.0 0.00 0.00 0.00 91 1014.3
20260505110225 10 116 1.6 1.6 0.00 0.00 0.00 91 1014.1
20260505102200 9 105 0.0 0.0 0.00 0.00 0.00 90 1013.7
20260505101659 10 97 0.0 0.0 0.00 0.00 0.00 90 1013.6
20260505101154 10 97 0.0 0.0 0.00 0.00 0.00 90 1013.6
20260505100651 10 96 0.0 0.0 0.00 0.00 0.00 90 1013.5
20260505100148 9 109 0.0 0.0 0.00 0.00 0.00 90 1013.4
20260505095644 10 109 0.0 0.0 0.00 0.00 0.00 90 1013.3
20260505095142 10 109 0.0 0.0 0.00 0.00 0.00 90 1013.3
20260505094637 10 100 0.0 0.0 0.00 0.00 0.00 89 1013.3
20260505094134 10 91 0.0 0.0 0.00 0.00 0.00 89 1013.3
20260505093630 9 105 0.0 0.0 0.00 0.00 0.00 89 1013.1
20260505093128 8 118 0.0 0.0 0.00 0.00 0.00 89 1013.3
20260505092624 9 118 0.0 1.6 0.00 0.00 0.00 89 1013.2
20260505092123 9 115 0.0 0.0 0.00 0.00 0.00 89 1013.2
20260505091619 10 118 0.0 0.0 0.00 0.00 0.00 89 1013.3
20260505091118 9 157 1.6 3.2 0.00 0.00 0.00 89 1013.4
20260505090615 9 123 0.0 0.0 0.00 0.00 0.00 89 1013.1
20260505090113 8 150 1.6 1.6 0.00 0.00 0.00 88 1013.1
20260505085610 9 116 0.0 1.6 0.00 0.00 0.00 88 1013.3
20260505085109 9 113 0.0 0.0 0.00 0.00 0.00 88 1013.2
20260505084606 9 112 0.0 0.0 0.00 0.00 0.00 88 1013.0
20260505084104 9 112 0.0 0.0 0.00 0.00 0.00 88 1013.2
20260505083601 9 113 0.0 0.0 0.00 0.00 0.00 88 1012.9
20260505083058 9 113 0.0 0.0 0.00 0.00 0.00 88 1013.3
20260505082553 9 112 0.0 0.0 0.00 0.00 0.00 87 1013.3
20260505082051 9 113 0.0 0.0 0.00 0.00 0.00 87 1013.2
20260505081547 10 121 0.0 1.6 0.00 0.00 0.00 87 1013.3
20260505081044 10 113 0.0 0.0 0.00 0.00 0.00 87 1013.4
20260505080540 10 117 0.0 0.0 0.00 0.00 0.00 87 1013.2
20260505080037 10 124 0.0 1.6 0.00 0.00 0.00 87 1013.3
20260505075533 10 115 0.0 0.0 0.00 0.00 0.00 87 1013.5
20260505075030 10 116 0.0 0.0 0.00 0.00 0.00 87 1013.2
20260505074527 10 123 0.0 1.6 0.00 0.00 0.00 86 1013.2
20260505074024 10 110 0.0 0.0 0.00 0.00 0.00 86 1013.2
20260505073522 10 110 0.0 0.0 0.00 0.00 0.00 86 1013.0
20260505073020 10 111 0.0 0.0 0.00 0.00 0.00 86 1013.2
20260505072515 10 112 0.0 1.6 0.00 0.00 0.00 86 1013.2
20260505072012 10 114 0.0 0.0 0.00 0.00 0.00 85 1013.2
20260505071507 10 113 0.0 0.0 0.00 0.00 0.00 85 1013.2
20260505071006 10 114 0.0 1.6 0.00 0.00 0.00 85 1013.0
20260505070503 10 118 0.0 1.6 0.00 0.00 0.00 84 1013.2
20260505065958 10 124 0.0 1.6 0.00 0.00 0.00 84 1013.2
20260505065454 10 120 1.6 1.6 0.00 0.00 0.00 83 1013.2
20260505064951 11 119 1.6 1.6 0.00 0.00 0.00 83 1013.2
20260505064448 11 119 1.6 1.6 0.00 0.00 0.00 82 1013.2
20260505063947 11 108 0.0 0.0 0.00 0.00 0.00 82 1013.2
20260505063443 11 109 0.0 0.0 0.00 0.00 0.00 82 1013.2
20260505062939 11 110 0.0 0.0 0.00 0.00 0.00 81 1013.4
20260505062436 11 111 0.0 1.6 0.00 0.00 0.00 81 1013.3
20260505061933 11 110 0.0 0.0 0.00 0.00 0.00 80 1013.4
20260505061431 11 111 0.0 0.0 0.00 0.00 0.00 80 1013.2
20260505060928 11 110 0.0 0.0 0.00 0.00 0.00 79 1013.3
20260505060426 11 110 0.0 0.0 0.00 0.00 0.00 78 1013.1
20260505055922 12 109 0.0 0.0 0.00 0.00 0.00 78 1013.4
20260505055418 12 110 0.0 0.0 0.00 0.00 0.00 77 1013.3
20260505054915 12 110 0.0 0.0 0.00 0.00 0.00 77 1013.6